WXM80 ListenWXM80 Stop

You find our weather info also at:

UK Metoffice

WeatherCloud

Weather Underground

Northeastern Weather Network

AWEKAS

Citizen Weather Observer Program (CWOP)

HAMweather, WeatherForYou, PWS Weather


Weather Underground History page Text

Daily Summary for March 7, 2016 Units:  English    Metric   Both
« Previous Day
Next Day »
Daily Weekly Monthly Yearly Custom
  High: Low: Average:
Temperature: 55.3 °F 34.7 °F 45.7 °F
Dew Point: 41.3 °F 29.4 °F 36.5 °F
Humidity: 88 % 56 % 71 %
Wind Speed: 11.3 mph 0.0 mph 4.5 mph
Wind Gust: 23.0 mph - -
Wind:- - SSW
Pressure: 30.27 in 29.95 in -
Precipitation: 0.00 in    
Historical Graphs
 
 
Tabular Data for March 7, 2016
Time Temperature Dew Point Pressure Wind Wind Speed Wind Gust Humidity Rainfall Rate (Hourly)
00:03 34.9 °F 29.4 °F 30.27 in SSW 1.7 mph 4.0 mph 80 % 0.00 in
00:09 34.9 °F 29.4 °F 30.27 in SSW 2.6 mph 4.0 mph 80 % 0.00 in
00:14 35.0 °F 29.5 °F 30.27 in SW 2.9 mph 3.5 mph 80 % 0.00 in
00:19 35.1 °F 29.6 °F 30.27 in SW 2.9 mph 4.6 mph 80 % 0.00 in
00:24 35.2 °F 29.6 °F 30.27 in SSW 3.8 mph 5.0 mph 80 % 0.00 in
00:29 35.2 °F 30.0 °F 30.27 in SSW 2.2 mph 4.0 mph 81 % 0.00 in
00:34 35.2 °F 30.0 °F 30.27 in SSW 3.2 mph 4.6 mph 81 % 0.00 in
00:39 35.3 °F 30.1 °F 30.27 in South 3.7 mph 4.6 mph 81 % 0.00 in
00:44 35.3 °F 30.4 °F 30.27 in SSW 5.2 mph 6.9 mph 82 % 0.00 in
00:49 35.4 °F 30.5 °F 30.27 in SSW 2.4 mph 6.9 mph 82 % 0.00 in
00:54 35.5 °F 30.5 °F 30.27 in SSW 4.3 mph 7.0 mph 82 % 0.00 in
01:00 35.6 °F 30.6 °F 30.27 in SSW 3.5 mph 6.9 mph 82 % 0.00 in
01:05 35.7 °F 30.7 °F 30.27 in SSW 3.6 mph 8.1 mph 82 % 0.00 in
01:10 35.8 °F 30.8 °F 30.27 in SSW 4.5 mph 6.9 mph 82 % 0.00 in
01:15 35.8 °F 30.8 °F 30.27 in South 4.8 mph 8.1 mph 82 % 0.00 in
01:20 35.8 °F 30.8 °F 30.27 in SW 4.4 mph 6.9 mph 82 % 0.00 in
01:25 35.8 °F 30.8 °F 30.27 in South 3.2 mph 8.1 mph 82 % 0.00 in
01:30 35.8 °F 30.8 °F 30.27 in SSW 2.3 mph 5.8 mph 82 % 0.00 in
01:35 35.8 °F 31.1 °F 30.27 in SSW 2.7 mph 4.6 mph 83 % 0.00 in
01:40 35.8 °F 31.1 °F 30.27 in South 2.2 mph 3.5 mph 83 % 0.00 in
01:45 35.8 °F 31.1 °F 30.27 in South 2.7 mph 4.6 mph 83 % 0.00 in
01:51 35.7 °F 31.0 °F 30.27 in SSW 3.5 mph 6.0 mph 83 % 0.00 in
01:56 35.7 °F 31.0 °F 30.26 in SSW 2.0 mph 3.5 mph 83 % 0.00 in
02:01 35.7 °F 31.0 °F 30.26 in South 2.8 mph 4.6 mph 83 % 0.00 in
02:06 35.7 °F 31.0 °F 30.26 in SSW 1.5 mph 3.5 mph 83 % 0.00 in
02:11 35.6 °F 30.9 °F 30.26 in South 2.7 mph 4.0 mph 83 % 0.00 in
02:16 35.5 °F 30.8 °F 30.26 in South 2.2 mph 5.8 mph 83 % 0.00 in
02:21 35.5 °F 31.1 °F 30.26 in South 2.4 mph 3.5 mph 84 % 0.00 in
02:26 35.4 °F 31.0 °F 30.25 in SSW 4.1 mph 5.8 mph 84 % 0.00 in
02:31 35.3 °F 30.9 °F 30.26 in SSW 1.9 mph 5.8 mph 84 % 0.00 in
02:37 35.3 °F 30.9 °F 30.26 in South 4.2 mph 6.9 mph 84 % 0.00 in
02:42 35.3 °F 31.2 °F 30.26 in SSW 2.3 mph 6.9 mph 85 % 0.00 in
02:47 35.4 °F 31.3 °F 30.25 in SSW 4.4 mph 6.9 mph 85 % 0.00 in
02:52 35.4 °F 31.3 °F 30.25 in SW 4.0 mph 7.0 mph 85 % 0.00 in
03:02 35.4 °F 31.3 °F 30.25 in SSW 3.0 mph 4.0 mph 85 % 0.00 in
03:07 35.4 °F 31.3 °F 30.25 in SW 3.2 mph 4.0 mph 85 % 0.00 in
03:12 35.3 °F 31.2 °F 30.25 in SSW 3.5 mph 8.1 mph 85 % 0.00 in
03:17 35.3 °F 31.5 °F 30.25 in SW 4.9 mph 6.9 mph 86 % 0.00 in
03:22 35.3 °F 31.5 °F 30.25 in SSW 3.0 mph 5.8 mph 86 % 0.00 in
03:28 35.2 °F 31.1 °F 30.25 in SW 4.9 mph 5.8 mph 85 % 0.00 in
03:33 35.2 °F 31.4 °F 30.24 in SSW 4.1 mph 5.8 mph 86 % 0.00 in
03:38 35.1 °F 31.3 °F 30.24 in SSW 2.7 mph 7.0 mph 86 % 0.00 in
03:43 35.1 °F 31.3 °F 30.24 in SSW 4.0 mph 5.8 mph 86 % 0.00 in
03:48 35.0 °F 31.5 °F 30.25 in SW 4.0 mph 6.9 mph 87 % 0.00 in
03:53 35.0 °F 31.5 °F 30.25 in SW 2.3 mph 8.0 mph 87 % 0.00 in
03:58 35.0 °F 31.5 °F 30.25 in SSW 3.4 mph 4.6 mph 87 % 0.00 in
04:03 35.0 °F 31.5 °F 30.25 in SSW 3.3 mph 5.8 mph 87 % 0.00 in
04:08 35.0 °F 31.5 °F 30.25 in SSW 3.6 mph 4.6 mph 87 % 0.00 in
04:13 35.0 °F 31.5 °F 30.25 in SSW 2.3 mph 4.6 mph 87 % 0.00 in
04:24 34.8 °F 31.3 °F 30.24 in SSW 2.2 mph 5.8 mph 87 % 0.00 in
04:29 34.8 °F 31.6 °F 30.24 in SSW 1.2 mph 3.5 mph 88 % 0.00 in
04:34 34.8 °F 31.6 °F 30.24 in SSW 3.6 mph 6.9 mph 88 % 0.00 in
04:39 34.7 °F 31.5 °F 30.24 in SSW 3.8 mph 5.8 mph 88 % 0.00 in
04:44 34.8 °F 31.6 °F 30.24 in SSW 5.2 mph 9.2 mph 88 % 0.00 in
04:49 34.8 °F 31.6 °F 30.24 in SSW 4.0 mph 6.9 mph 88 % 0.00 in
04:54 34.9 °F 31.7 °F 30.24 in SSW 2.2 mph 6.0 mph 88 % 0.00 in
05:04 35.0 °F 31.8 °F 30.23 in SSW 4.1 mph 7.0 mph 88 % 0.00 in
05:10 35.1 °F 31.9 °F 30.23 in SSW 2.6 mph 5.8 mph 88 % 0.00 in
05:15 35.1 °F 31.9 °F 30.23 in SSW 1.5 mph 5.8 mph 88 % 0.00 in
05:20 35.2 °F 32.0 °F 30.24 in SW 3.4 mph 4.6 mph 88 % 0.00 in
05:25 35.3 °F 32.1 °F 30.25 in South 2.8 mph 5.8 mph 88 % 0.00 in
05:30 35.3 °F 32.1 °F 30.25 in WSW 1.9 mph 4.0 mph 88 % 0.00 in
05:35 35.5 °F 32.3 °F 30.25 in SSW 4.9 mph 6.9 mph 88 % 0.00 in
05:40 35.6 °F 32.4 °F 30.25 in SW 2.7 mph 5.0 mph 88 % 0.00 in
05:45 35.7 °F 32.5 °F 30.26 in SW 2.0 mph 3.5 mph 88 % 0.00 in
05:50 35.7 °F 32.2 °F 30.25 in SSW 4.0 mph 6.9 mph 87 % 0.00 in
05:55 35.8 °F 32.3 °F 30.25 in SSW 2.2 mph 3.5 mph 87 % 0.00 in
06:01 35.9 °F 32.7 °F 30.25 in SSW 2.7 mph 3.5 mph 88 % 0.00 in
06:06 35.9 °F 32.7 °F 30.26 in SW 3.3 mph 5.0 mph 88 % 0.00 in
06:11 36.0 °F 32.5 °F 30.26 in SSW 4.2 mph 5.8 mph 87 % 0.00 in
06:16 36.0 °F 32.5 °F 30.26 in SW 3.2 mph 4.6 mph 87 % 0.00 in
06:21 36.0 °F 32.5 °F 30.27 in SSW 1.7 mph 3.5 mph 87 % 0.00 in
06:26 36.0 °F 32.5 °F 30.26 in South 0.4 mph 3.5 mph 87 % 0.00 in
06:31 36.1 °F 32.6 °F 30.26 in South 1.7 mph 3.5 mph 87 % 0.00 in
06:36 36.1 °F 32.6 °F 30.26 in South 2.6 mph 3.5 mph 87 % 0.00 in
06:41 36.2 °F 32.7 °F 30.26 in SSW 2.8 mph 4.6 mph 87 % 0.00 in
06:46 36.2 °F 32.7 °F 30.26 in SSW 1.4 mph 6.0 mph 87 % 0.00 in
06:52 36.4 °F 32.9 °F 30.26 in SSW 1.9 mph 6.9 mph 87 % 0.00 in
06:57 36.5 °F 33.0 °F 30.25 in SSW 2.9 mph 3.5 mph 87 % 0.00 in
07:02 36.8 °F 33.3 °F 30.26 in SSW 4.1 mph 6.9 mph 87 % 0.00 in
07:07 37.0 °F 33.2 °F 30.25 in SW 1.8 mph 4.0 mph 86 % 0.00 in
07:12 37.2 °F 33.4 °F 30.25 in SSW 2.0 mph 3.5 mph 86 % 0.00 in
07:17 37.4 °F 33.3 °F 30.26 in WSW 4.2 mph 8.1 mph 85 % 0.00 in
07:22 37.7 °F 33.6 °F 30.26 in SSW 4.2 mph 6.0 mph 85 % 0.00 in
07:27 38.2 °F 33.8 °F 30.25 in SW 3.9 mph 6.0 mph 84 % 0.00 in
07:32 38.5 °F 33.8 °F 30.26 in SW 3.8 mph 6.9 mph 83 % 0.00 in
07:37 38.8 °F 33.8 °F 30.25 in SSW 2.6 mph 4.0 mph 82 % 0.00 in
07:43 39.2 °F 33.9 °F 30.25 in SSE 2.7 mph 4.6 mph 81 % 0.00 in
07:48 39.6 °F 33.9 °F 30.25 in SSW 3.1 mph 6.9 mph 80 % 0.00 in
07:53 40.0 °F 33.7 °F 30.26 in SSW 6.8 mph 11.5 mph 78 % 0.00 in
07:58 40.3 °F 33.7 °F 30.26 in WSW 1.2 mph 3.5 mph 77 % 0.00 in
08:03 40.6 °F 33.6 °F 30.26 in SW 3.2 mph 5.0 mph 76 % 0.00 in
08:08 41.0 °F 33.7 °F 30.26 in SW 3.8 mph 8.0 mph 75 % 0.00 in
08:13 41.4 °F 33.7 °F 30.27 in SSW 6.5 mph 10.4 mph 74 % 0.00 in
08:23 42.3 °F 33.6 °F 30.26 in SW 3.3 mph 4.6 mph 71 % 0.00 in
08:34 43.2 °F 33.7 °F 30.26 in WSW 5.0 mph 10.4 mph 69 % 0.00 in
08:39 43.6 °F 33.7 °F 30.26 in SW 3.3 mph 9.2 mph 68 % 0.00 in
08:44 44.0 °F 33.4 °F 30.25 in SW 5.3 mph 9.2 mph 66 % 0.00 in
08:49 44.4 °F 34.1 °F 30.24 in SW 9.1 mph 15.0 mph 67 % 0.00 in
08:54 44.7 °F 33.6 °F 30.24 in West 5.7 mph 8.1 mph 65 % 0.00 in
08:59 44.9 °F 34.2 °F 30.24 in SSW 5.3 mph 8.1 mph 66 % 0.00 in
09:04 45.3 °F 34.2 °F 30.23 in SW 5.7 mph 10.0 mph 65 % 0.00 in
09:09 45.6 °F 33.7 °F 30.23 in SSW 5.3 mph 11.5 mph 63 % 0.00 in
09:14 45.9 °F 34.4 °F 30.22 in WSW 5.5 mph 7.0 mph 64 % 0.00 in
09:19 46.3 °F 34.4 °F 30.21 in South 3.9 mph 11.5 mph 63 % 0.00 in
09:25 46.8 °F 34.5 °F 30.22 in SW 6.8 mph 11.5 mph 62 % 0.00 in
09:30 47.3 °F 34.1 °F 30.21 in SSW 10.0 mph 16.1 mph 60 % 0.00 in
09:35 47.6 °F 34.4 °F 30.21 in SSW 4.1 mph 16.1 mph 60 % 0.00 in
09:40 47.9 °F 34.7 °F 30.21 in WSW 6.5 mph 14.0 mph 60 % 0.00 in
09:45 48.3 °F 34.6 °F 30.21 in South 4.9 mph 9.2 mph 59 % 0.00 in
09:50 48.6 °F 34.5 °F 30.21 in SSW 7.9 mph 12.7 mph 58 % 0.00 in
09:55 48.9 °F 34.3 °F 30.21 in SSW 7.2 mph 12.7 mph 57 % 0.00 in
10:00 49.1 °F 34.9 °F 30.21 in South 6.6 mph 11.5 mph 58 % 0.00 in
10:05 49.2 °F 34.6 °F 30.20 in SSW 6.7 mph 10.4 mph 57 % 0.00 in
10:10 49.4 °F 34.8 °F 30.20 in SW 4.6 mph 9.2 mph 57 % 0.00 in
10:16 49.7 °F 35.1 °F 30.20 in South 5.5 mph 11.5 mph 57 % 0.00 in
10:21 49.9 °F 35.3 °F 30.19 in WSW 4.7 mph 12.7 mph 57 % 0.00 in
10:26 50.4 °F 36.2 °F 30.19 in SW 9.0 mph 13.8 mph 58 % 0.00 in
10:27 50.5 °F 35.8 °F 30.18 in SW 3.5 mph 11.5 mph 57 % 0.00 in
10:32 50.8 °F 36.5 °F 30.18 in SSE 6.1 mph 11.5 mph 58 % 0.00 in
10:37 51.0 °F 36.3 °F 30.18 in South 3.8 mph 7.0 mph 57 % 0.00 in
10:42 51.4 °F 36.2 °F 30.17 in SSW 10.1 mph 15.0 mph 56 % 0.00 in
10:47 51.5 °F 36.8 °F 30.17 in South 5.4 mph 11.5 mph 57 % 0.00 in
10:52 51.6 °F 36.4 °F 30.16 in South 8.1 mph 15.0 mph 56 % 0.00 in
10:58 51.3 °F 36.1 °F 30.16 in SSW 7.4 mph 10.4 mph 56 % 0.00 in
11:03 51.1 °F 36.4 °F 30.16 in SW 10.8 mph 18.4 mph 57 % 0.00 in
11:08 51.1 °F 36.4 °F 30.15 in SW 7.0 mph 13.8 mph 57 % 0.00 in
11:13 51.2 °F 36.5 °F 30.15 in WSW 6.9 mph 16.1 mph 57 % 0.00 in
11:18 51.0 °F 36.7 °F 30.15 in SW 10.1 mph 22.0 mph 58 % 0.00 in
11:23 51.2 °F 37.4 °F 30.15 in SW 4.6 mph 11.0 mph 59 % 0.00 in
11:28 51.7 °F 37.8 °F 30.15 in SSW 6.8 mph 16.1 mph 59 % 0.00 in
11:33 52.2 °F 37.9 °F 30.14 in SSW 8.2 mph 18.4 mph 58 % 0.00 in
11:38 52.2 °F 37.9 °F 30.14 in SSW 6.0 mph 14.0 mph 58 % 0.00 in
11:43 52.1 °F 37.3 °F 30.13 in SSW 8.1 mph 12.0 mph 57 % 0.00 in
11:49 51.8 °F 37.5 °F 30.12 in SW 9.7 mph 18.4 mph 58 % 0.00 in
11:54 51.8 °F 37.5 °F 30.12 in SSW 8.1 mph 17.3 mph 58 % 0.00 in
11:59 51.9 °F 37.6 °F 30.12 in SW 6.1 mph 18.4 mph 58 % 0.00 in
12:04 52.0 °F 37.7 °F 30.11 in SSW 11.3 mph 16.1 mph 58 % 0.00 in
12:09 52.0 °F 37.7 °F 30.10 in South 9.6 mph 15.0 mph 58 % 0.00 in
12:14 51.9 °F 38.0 °F 30.10 in SW 10.8 mph 17.0 mph 59 % 0.00 in
12:19 51.7 °F 37.8 °F 30.09 in SSW 7.9 mph 17.3 mph 59 % 0.00 in
12:24 51.4 °F 37.5 °F 30.09 in SW 9.1 mph 15.0 mph 59 % 0.00 in
12:29 51.3 °F 37.4 °F 30.09 in WSW 9.1 mph 17.3 mph 59 % 0.00 in
12:34 51.5 °F 38.1 °F 30.08 in WSW 5.5 mph 9.0 mph 60 % 0.00 in
12:40 51.5 °F 38.1 °F 30.08 in WSW 6.4 mph 16.0 mph 60 % 0.00 in
12:45 51.4 °F 38.4 °F 30.08 in South 8.1 mph 13.0 mph 61 % 0.00 in
12:50 51.8 °F 39.2 °F 30.07 in WSW 6.0 mph 11.5 mph 62 % 0.00 in
12:55 52.4 °F 39.3 °F 30.06 in SW 10.4 mph 15.0 mph 61 % 0.00 in
13:00 52.6 °F 39.1 °F 30.06 in South 7.8 mph 11.5 mph 60 % 0.00 in
13:05 52.6 °F 39.5 °F 30.05 in South 6.1 mph 9.2 mph 61 % 0.00 in
13:10 52.9 °F 39.8 °F 30.04 in South 9.2 mph 12.7 mph 61 % 0.00 in
13:15 52.8 °F 39.3 °F 30.04 in SSW 11.3 mph 23.0 mph 60 % 0.00 in
13:20 52.6 °F 39.1 °F 30.04 in SSW 3.7 mph 11.5 mph 60 % 0.00 in
13:25 52.8 °F 39.7 °F 30.04 in SSW 4.8 mph 12.0 mph 61 % 0.00 in
13:31 53.3 °F 39.8 °F 30.03 in SW 5.3 mph 10.4 mph 60 % 0.00 in
13:36 53.9 °F 39.9 °F 30.03 in WSW 9.4 mph 18.0 mph 59 % 0.00 in
13:41 54.1 °F 39.6 °F 30.03 in SSW 7.7 mph 15.0 mph 58 % 0.00 in
13:46 54.1 °F 40.1 °F 30.02 in South 6.2 mph 14.0 mph 59 % 0.00 in
13:56 54.5 °F 39.6 °F 30.02 in South 7.0 mph 11.5 mph 57 % 0.00 in
14:01 54.7 °F 40.2 °F 30.02 in SSW 5.5 mph 16.0 mph 58 % 0.00 in
14:06 54.9 °F 39.9 °F 30.01 in SSW 7.9 mph 10.4 mph 57 % 0.00 in
14:11 55.0 °F 39.6 °F 30.01 in South 9.6 mph 19.6 mph 56 % 0.00 in
14:22 55.1 °F 40.6 °F 30.01 in SW 6.1 mph 8.1 mph 58 % 0.00 in
14:27 55.3 °F 39.9 °F 30.01 in WSW 6.1 mph 11.5 mph 56 % 0.00 in
14:32 55.1 °F 39.7 °F 30.01 in SSW 6.4 mph 11.5 mph 56 % 0.00 in
14:37 55.0 °F 40.0 °F 30.00 in South 4.6 mph 8.0 mph 57 % 0.00 in
14:42 54.9 °F 40.4 °F 30.00 in SSW 3.9 mph 11.5 mph 58 % 0.00 in
14:47 54.9 °F 40.8 °F 30.00 in South 5.0 mph 6.9 mph 59 % 0.00 in
14:57 54.5 °F 40.5 °F 29.99 in SW 6.0 mph 11.0 mph 59 % 0.00 in
15:02 54.4 °F 40.4 °F 29.99 in SSW 5.0 mph 9.2 mph 59 % 0.00 in
15:07 54.1 °F 40.1 °F 29.99 in South 6.8 mph 11.5 mph 59 % 0.00 in
15:13 53.9 °F 40.3 °F 29.99 in South 5.6 mph 11.5 mph 60 % 0.00 in
15:18 53.9 °F 40.3 °F 29.99 in SSW 7.0 mph 12.0 mph 60 % 0.00 in
15:23 53.8 °F 40.2 °F 29.99 in South 1.4 mph 5.8 mph 60 % 0.00 in
15:28 53.8 °F 40.2 °F 29.99 in SSW 4.4 mph 8.1 mph 60 % 0.00 in
15:33 53.7 °F 40.6 °F 29.99 in South 3.6 mph 9.2 mph 61 % 0.00 in
15:38 53.7 °F 40.6 °F 29.99 in South 3.9 mph 6.9 mph 61 % 0.00 in
15:43 53.7 °F 40.6 °F 29.97 in South 7.2 mph 11.5 mph 61 % 0.00 in
15:48 53.6 °F 40.5 °F 29.97 in South 6.2 mph 8.1 mph 61 % 0.00 in
15:53 53.5 °F 40.4 °F 29.97 in South 5.5 mph 11.5 mph 61 % 0.00 in
15:59 53.5 °F 40.8 °F 29.96 in SSW 7.3 mph 12.7 mph 62 % 0.00 in
16:04 53.5 °F 40.4 °F 29.96 in SSW 4.4 mph 8.1 mph 61 % 0.00 in
16:09 53.5 °F 40.4 °F 29.95 in SSW 6.8 mph 10.4 mph 61 % 0.00 in
16:14 53.4 °F 40.7 °F 29.95 in South 9.6 mph 15.0 mph 62 % 0.00 in
16:19 53.4 °F 40.7 °F 29.95 in South 2.9 mph 6.0 mph 62 % 0.00 in
16:24 53.4 °F 40.7 °F 29.95 in SW 6.9 mph 10.4 mph 62 % 0.00 in
16:29 53.3 °F 41.0 °F 29.96 in South 4.3 mph 6.9 mph 63 % 0.00 in
16:34 53.3 °F 41.0 °F 29.96 in South 2.8 mph 5.0 mph 63 % 0.00 in
16:39 53.2 °F 40.9 °F 29.96 in South 5.2 mph 15.0 mph 63 % 0.00 in
16:44 53.1 °F 40.8 °F 29.96 in SSW 3.1 mph 9.2 mph 63 % 0.00 in
16:54 52.9 °F 41.0 °F 29.96 in South 7.8 mph 10.4 mph 64 % 0.00 in
17:00 52.7 °F 40.9 °F 29.96 in South 5.2 mph 9.0 mph 64 % 0.00 in
17:05 52.6 °F 41.2 °F 29.96 in South 2.3 mph 5.8 mph 65 % 0.00 in
17:10 52.4 °F 41.0 °F 29.96 in SW 2.8 mph 8.1 mph 65 % 0.00 in
17:15 52.3 °F 40.9 °F 29.97 in South 1.7 mph 4.0 mph 65 % 0.00 in
17:20 52.2 °F 40.8 °F 29.97 in South 1.5 mph 4.6 mph 65 % 0.00 in
17:25 52.1 °F 41.1 °F 29.97 in South 2.1 mph 4.6 mph 66 % 0.00 in
17:30 51.9 °F 41.3 °F 29.97 in South 1.7 mph 5.0 mph 67 % 0.00 in
17:35 51.5 °F 40.9 °F 29.97 in South 3.4 mph 4.6 mph 67 % 0.00 in
17:40 51.1 °F 40.9 °F 29.97 in SSW 3.1 mph 7.0 mph 68 % 0.00 in
17:45 50.8 °F 41.0 °F 29.97 in South 2.0 mph 4.6 mph 69 % 0.00 in
17:51 50.5 °F 40.7 °F 29.97 in South 4.8 mph 7.0 mph 69 % 0.00 in
17:56 50.2 °F 40.8 °F 29.97 in SW 4.8 mph 10.4 mph 70 % 0.00 in
18:01 50.0 °F 40.6 °F 29.97 in SSW 3.1 mph 9.2 mph 70 % 0.00 in
18:06 49.8 °F 40.8 °F 29.97 in SSW 6.1 mph 10.4 mph 71 % 0.00 in
18:11 49.7 °F 40.7 °F 29.97 in SW 6.2 mph 9.2 mph 71 % 0.00 in
18:16 49.6 °F 40.6 °F 29.97 in SW 5.2 mph 10.4 mph 71 % 0.00 in
18:21 49.6 °F 40.6 °F 29.97 in SSW 4.1 mph 10.0 mph 71 % 0.00 in
18:26 49.6 °F 40.6 °F 29.97 in SSW 5.8 mph 6.9 mph 71 % 0.00 in
18:31 49.5 °F 40.5 °F 29.97 in SSW 5.7 mph 9.2 mph 71 % 0.00 in
18:42 49.4 °F 40.7 °F 29.98 in South 4.7 mph 8.1 mph 72 % 0.00 in
18:52 49.1 °F 40.5 °F 29.98 in SSW 4.9 mph 8.1 mph 72 % 0.00 in
18:57 49.0 °F 40.7 °F 29.98 in SW 5.5 mph 7.0 mph 73 % 0.00 in
19:02 49.0 °F 40.7 °F 29.99 in SSW 3.4 mph 4.0 mph 73 % 0.00 in
19:07 49.0 °F 40.4 °F 29.99 in SSW 4.9 mph 9.2 mph 72 % 0.00 in
19:12 49.0 °F 40.4 °F 29.99 in SSW 5.4 mph 10.4 mph 72 % 0.00 in
19:17 49.1 °F 40.5 °F 29.99 in SSW 4.0 mph 9.2 mph 72 % 0.00 in
19:22 49.2 °F 40.6 °F 29.99 in SSW 7.5 mph 10.0 mph 72 % 0.00 in
19:27 49.4 °F 40.4 °F 29.99 in SW 4.9 mph 9.2 mph 71 % 0.00 in
19:33 49.5 °F 40.5 °F 29.99 in SW 5.1 mph 11.5 mph 71 % 0.00 in
19:38 49.6 °F 40.6 °F 30.00 in SW 5.3 mph 10.4 mph 71 % 0.00 in
19:43 49.7 °F 40.7 °F 30.00 in SW 3.5 mph 6.9 mph 71 % 0.00 in
19:48 49.8 °F 40.4 °F 30.00 in SSW 5.6 mph 10.4 mph 70 % 0.00 in
19:53 49.9 °F 40.5 °F 30.00 in SSW 6.1 mph 10.4 mph 70 % 0.00 in
19:58 49.9 °F 40.5 °F 30.00 in SW 6.1 mph 11.5 mph 70 % 0.00 in
20:03 50.0 °F 40.6 °F 30.00 in SW 4.5 mph 7.0 mph 70 % 0.00 in
20:08 50.1 °F 40.3 °F 30.00 in SW 5.2 mph 7.0 mph 69 % 0.00 in
20:13 50.3 °F 40.5 °F 30.01 in SSW 5.3 mph 8.1 mph 69 % 0.00 in
20:18 50.4 °F 40.6 °F 30.01 in SW 3.7 mph 10.4 mph 69 % 0.00 in
20:24 50.5 °F 40.3 °F 30.01 in SW 3.9 mph 6.9 mph 68 % 0.00 in
20:29 50.6 °F 40.4 °F 30.01 in SSE 2.9 mph 5.8 mph 68 % 0.00 in
20:34 50.7 °F 40.5 °F 30.02 in South 3.2 mph 5.8 mph 68 % 0.00 in
20:39 50.8 °F 40.6 °F 30.02 in SSW 3.5 mph 7.0 mph 68 % 0.00 in
20:44 50.8 °F 40.6 °F 30.02 in SW 3.7 mph 8.1 mph 68 % 0.00 in
20:54 50.9 °F 40.7 °F 30.02 in SW 6.1 mph 8.1 mph 68 % 0.00 in
21:04 50.9 °F 40.3 °F 30.02 in SSW 2.6 mph 9.2 mph 67 % 0.00 in
21:09 50.9 °F 40.3 °F 30.02 in SSW 4.5 mph 8.1 mph 67 % 0.00 in
21:15 50.9 °F 40.3 °F 30.02 in SW 5.2 mph 6.9 mph 67 % 0.00 in
21:20 50.9 °F 40.3 °F 30.02 in SW 5.1 mph 8.1 mph 67 % 0.00 in
21:25 50.9 °F 40.3 °F 30.02 in SSW 4.0 mph 11.0 mph 67 % 0.00 in
21:30 51.0 °F 40.4 °F 30.02 in SSW 2.8 mph 5.8 mph 67 % 0.00 in
21:35 51.0 °F 40.4 °F 30.02 in WSW 3.5 mph 5.8 mph 67 % 0.00 in
21:40 51.0 °F 40.4 °F 30.02 in SSW 4.0 mph 5.0 mph 67 % 0.00 in
21:45 51.1 °F 40.5 °F 30.02 in SW 4.2 mph 5.8 mph 67 % 0.00 in
21:50 51.1 °F 40.5 °F 30.02 in SSW 2.1 mph 4.6 mph 67 % 0.00 in
21:55 51.1 °F 40.5 °F 30.02 in SW 1.2 mph 3.5 mph 67 % 0.00 in
22:01 51.1 °F 40.1 °F 30.03 in SW 4.1 mph 10.4 mph 66 % 0.00 in
22:06 51.1 °F 40.1 °F 30.03 in SSW 3.6 mph 5.8 mph 66 % 0.00 in
22:11 51.0 °F 40.4 °F 30.02 in SSW 2.9 mph 8.1 mph 67 % 0.00 in
22:21 50.9 °F 40.3 °F 30.02 in SSW 3.2 mph 8.1 mph 67 % 0.00 in
22:26 50.8 °F 40.2 °F 30.02 in SW 3.6 mph 6.0 mph 67 % 0.00 in
22:31 50.8 °F 40.2 °F 30.02 in SSW 3.8 mph 5.0 mph 67 % 0.00 in
22:36 50.7 °F 40.1 °F 30.02 in SSW 5.8 mph 6.9 mph 67 % 0.00 in
22:41 50.7 °F 40.1 °F 30.02 in SSW 4.4 mph 6.9 mph 67 % 0.00 in
22:46 50.7 °F 40.1 °F 30.02 in SW 5.3 mph 9.2 mph 67 % 0.00 in
22:52 50.7 °F 40.1 °F 30.02 in SW 4.6 mph 5.8 mph 67 % 0.00 in
22:57 50.7 °F 40.1 °F 30.02 in SSW 3.5 mph 7.0 mph 67 % 0.00 in
23:02 50.6 °F 40.0 °F 30.02 in SW 2.1 mph 6.9 mph 67 % 0.00 in
23:07 50.6 °F 40.0 °F 30.02 in SW 0.9 mph 4.6 mph 67 % 0.00 in
23:12 50.5 °F 39.9 °F 30.02 in SW 0.2 mph 1.2 mph 67 % 0.00 in
23:17 50.5 °F 39.9 °F 30.03 in West 1.3 mph 4.0 mph 67 % 0.00 in
23:22 50.4 °F 39.9 °F 30.03 in West 0.2 mph   67 % 0.00 in
23:27 50.3 °F 39.8 °F 30.04 in West 1.1 mph 2.0 mph 67 % 0.00 in
23:32 50.1 °F 39.9 °F 30.04 in NNW 0.6 mph 2.3 mph 68 % 0.00 in
23:37 49.7 °F 39.9 °F 30.04 in NNW 1.9 mph 3.5 mph 69 % 0.00 in
23:43 49.3 °F 39.6 °F 30.04 in NNW 0.5 mph 2.3 mph 69 % 0.00 in
23:48 48.8 °F 39.8 °F 30.04 in NNW 0.1 mph 1.2 mph 71 % 0.00 in
23:53 48.4 °F 39.4 °F 30.04 in Calm     71 % 0.00 in
23:58 47.8 °F 39.2 °F 30.04 in NE 0.6 mph 2.3 mph 72 % 0.00 in
Crab Meadow Weather
Compliments of Weather Underground - 3 mb

Script developed by  Jim McMurry - jmcmurry@mwt.net Adapted for the template by  Wim van der Kuil - Leuven-Template.eu

Astronomy: Venus rotates east to west.